When you browse on this site, cookies collect data to enhance your experience and personalize the content and advertising you see.
Visit our Privacy Policy to learn more. By continuing to use the site, you agree to this use of cookies and data.
  • în România
  • Lista ţărilor
  • Pe 7 zile
  • Temperatura apei
  • Meteo pe hartă
  • Widget-uri
  • user-avatar
    Intrare

    Meteo pe oră la Benguela

    Astăzi, 15 Decembrie, Duminică

    Timp Temperatura Precipitaţii Vânt Presiune Umiditate
    00:00 +27°C° 1 mm 1 m/s 759 mmHg 81%
    01:00 +27°C° 0 mm 1 m/s 759 mmHg 81%
    02:00 +27°C° 0.6 mm 1 m/s 759 mmHg 82%
    03:00 +26°C° 0.6 mm 1 m/s 758 mmHg 84%
    04:00 +26°C° 0.6 mm 1 m/s 758 mmHg 85%
    05:00 +26°C° 0.1 mm 2 m/s 758 mmHg 85%
    06:00 +27°C° 0.1 mm 2 m/s 759 mmHg 85%
    07:00 +27°C° 0 mm 2 m/s 759 mmHg 85%
    08:00 +28°C° 0.1 mm 2 m/s 759 mmHg 79%
    09:00 +30°C° 0.1 mm 2 m/s 759 mmHg 73%
    10:00 +31°C° 0.1 mm 3 m/s 758 mmHg 68%
    11:00 +32°C° 0 mm 4 m/s 758 mmHg 68%
    12:00 +32°C° 0 mm 4 m/s 757 mmHg 69%
    13:00 +32°C° 0 mm 4 m/s 757 mmHg 67%
    14:00 +32°C° 0.1 mm 4 m/s 756 mmHg 70%
    15:00 +30°C° 0.1 mm 4 m/s 756 mmHg 72%
    16:00 +30°C° 0.1 mm 3 m/s 755 mmHg 74%
    17:00 +29°C° 0.2 mm 3 m/s 756 mmHg 77%
    18:00 +28°C° 0.2 mm 2 m/s 756 mmHg 79%
    19:00 +28°C° 0.2 mm 1 m/s 756 mmHg 82%
    20:00 +28°C° 0 mm 1 m/s 757 mmHg 82%
    21:00 +28°C° 0 mm 1 m/s 757 mmHg 81%
    22:00 +28°C° 0 mm 2 m/s 758 mmHg 81%
    23:00 +28°C° 0.7 mm 1 m/s 758 mmHg 82%

    Mâine, 16 Decembrie, Luni

    Timp Temperatura Precipitaţii Vânt Presiune Umiditate
    00:00 +28°C° 0.7 mm 1 m/s 758 mmHg 83%
    01:00 +28°C° 0.7 mm 1 m/s 758 mmHg 84%
    02:00 +27°C° 0.4 mm 1 m/s 757 mmHg 85%
    03:00 +25°C° 0.4 mm 0 m/s 757 mmHg 86%
    04:00 +25°C° 0.4 mm 0 m/s 757 mmHg 87%
    05:00 +25°C° 0 mm 0 m/s 757 mmHg 86%
    06:00 +26°C° 0 mm 0 m/s 758 mmHg 86%
    07:00 +26°C° 0 mm 0 m/s 758 mmHg 85%
    08:00 +26°C° 0 mm 0 m/s 758 mmHg 82%
    09:00 +29°C° 0 mm 1 m/s 758 mmHg 78%
    10:00 +30°C° 0 mm 1 m/s 758 mmHg 75%
    11:00 +31°C° 0.2 mm 1 m/s 758 mmHg 69%
    12:00 +32°C° 0.2 mm 2 m/s 757 mmHg 64%
    13:00 +35°C° 0.2 mm 2 m/s 757 mmHg 58%
    14:00 +34°C° 0.2 mm 2 m/s 757 mmHg 61%
    15:00 +32°C° 0.2 mm 2 m/s 756 mmHg 64%
    16:00 +32°C° 0.2 mm 2 m/s 756 mmHg 66%
    17:00 +31°C° 0 mm 2 m/s 756 mmHg 69%
    18:00 +31°C° 0 mm 2 m/s 756 mmHg 71%
    19:00 +30°C° 0 mm 1 m/s 756 mmHg 73%
    20:00 +30°C° 0 mm 2 m/s 757 mmHg 73%
    21:00 +30°C° 0 mm 2 m/s 757 mmHg 74%
    22:00 +30°C° 0 mm 3 m/s 757 mmHg 74%
    23:00 +29°C° 0 mm 3 m/s 757 mmHg 75%

    Poimâine, 17 Decembrie, Marţi

    Timp Temperatura Precipitaţii Vânt Presiune Umiditate
    00:00 +29°C° 0 mm 2 m/s 757 mmHg 77%
    01:00 +29°C° 0 mm 2 m/s 757 mmHg 78%
    02:00 +29°C° 0 mm 2 m/s 757 mmHg 78%
    03:00 +29°C° 0 mm 2 m/s 756 mmHg 77%
    04:00 +29°C° 0 mm 1 m/s 756 mmHg 77%
    05:00 +29°C° 0 mm 1 m/s 757 mmHg 76%
    06:00 +29°C° 0 mm 1 m/s 757 mmHg 75%
    07:00 +29°C° 0 mm 1 m/s 758 mmHg 74%
    08:00 +30°C° 0 mm 2 m/s 757 mmHg 70%
    09:00 +31°C° 0 mm 2 m/s 757 mmHg 65%
    10:00 +34°C° 0 mm 2 m/s 757 mmHg 61%
    11:00 +34°C° 0 mm 3 m/s 756 mmHg 59%
    12:00 +35°C° 0 mm 3 m/s 756 mmHg 58%
    13:00 +36°C° 0 mm 4 m/s 755 mmHg 56%
    14:00 +36°C° 0 mm 4 m/s 755 mmHg 57%
    15:00 +35°C° 0 mm 4 m/s 755 mmHg 58%
    16:00 +35°C° 0 mm 5 m/s 754 mmHg 58%
    17:00 +34°C° 0.1 mm 4 m/s 755 mmHg 63%
    18:00 +33°C° 0.1 mm 3 m/s 756 mmHg 67%
    19:00 +31°C° 0.1 mm 2 m/s 756 mmHg 72%
    20:00 +30°C° 0 mm 2 m/s 757 mmHg 73%
    21:00 +30°C° 0 mm 2 m/s 758 mmHg 74%
    22:00 +30°C° 0 mm 2 m/s 758 mmHg 76%
    23:00 +29°C° 0.2 mm 3 m/s 758 mmHg 78%

    18 Decembrie, Miercuri

    Timp Temperatura Precipitaţii Vânt Presiune Umiditate
    00:00 +29°C° 0.2 mm 3 m/s 757 mmHg 80%
    01:00 +28°C° 0.2 mm 3 m/s 757 mmHg 82%
    02:00 +28°C° 0.1 mm 3 m/s 757 mmHg 80%
    03:00 +28°C° 0.1 mm 3 m/s 756 mmHg 78%
    04:00 +29°C° 0.1 mm 3 m/s 756 mmHg 76%
    05:00 +29°C° 0 mm 3 m/s 757 mmHg 75%
    06:00 +29°C° 0 mm 3 m/s 757 mmHg 74%
    07:00 +30°C° 0 mm 3 m/s 757 mmHg 73%
    08:00 +31°C° 0 mm 3 m/s 757 mmHg 67%
    09:00 +33°C° 0 mm 3 m/s 757 mmHg 61%
    10:00 +35°C° 0 mm 3 m/s 757 mmHg 54%
    11:00 +35°C° 0 mm 4 m/s 756 mmHg 52%
    12:00 +36°C° 0 mm 5 m/s 756 mmHg 50%
    13:00 +37°C° 0 mm 5 m/s 755 mmHg 48%
    14:00 +36°C° 0 mm 5 m/s 755 mmHg 53%
    15:00 +35°C° 0 mm 6 m/s 755 mmHg 57%
    16:00 +34°C° 0 mm 6 m/s 755 mmHg 61%
    17:00 +33°C° 0 mm 5 m/s 755 mmHg 66%
    18:00 +30°C° 0 mm 4 m/s 756 mmHg 70%
    19:00 +29°C° 0 mm 3 m/s 756 mmHg 75%
    20:00 +29°C° 0.2 mm 2 m/s 757 mmHg 77%
    21:00 +29°C° 0.2 mm 2 m/s 757 mmHg 79%
    22:00 +28°C° 0.2 mm 1 m/s 758 mmHg 80%
    23:00 +28°C° 0.6 mm 2 m/s 758 mmHg 82%

    19 Decembrie, Joi

    Timp Temperatura Precipitaţii Vânt Presiune Umiditate
    00:00 +28°C° 0.6 mm 2 m/s 757 mmHg 84%
    01:00 +27°C° 0.6 mm 2 m/s 757 mmHg 86%
    02:00 +27°C° 1.3 mm 2 m/s 757 mmHg 88%
    03:00 +27°C° 1.3 mm 1 m/s 757 mmHg 89%
    04:00 +27°C° 1.3 mm 1 m/s 757 mmHg 91%
    05:00 +27°C° 0.8 mm 1 m/s 757 mmHg 90%
    06:00 +27°C° 0.8 mm 1 m/s 758 mmHg 88%
    07:00 +25°C° 0.8 mm 0 m/s 758 mmHg 87%
    08:00 +28°C° 0.2 mm 1 m/s 758 mmHg 81%
    09:00 +29°C° 0.2 mm 1 m/s 758 mmHg 75%
    10:00 +30°C° 0.2 mm 2 m/s 758 mmHg 69%
    11:00 +31°C° 0 mm 3 m/s 757 mmHg 69%
    12:00 +31°C° 0 mm 3 m/s 757 mmHg 69%
    13:00 +32°C° 0 mm 4 m/s 756 mmHg 69%
    14:00 +32°C° 0 mm 4 m/s 756 mmHg 69%
    15:00 +32°C° 0 mm 4 m/s 755 mmHg 69%
    16:00 +32°C° 0 mm 4 m/s 755 mmHg 69%
    17:00 +30°C° 0.6 mm 4 m/s 756 mmHg 74%
    18:00 +29°C° 0.6 mm 3 m/s 756 mmHg 80%
    19:00 +28°C° 0.6 mm 2 m/s 757 mmHg 85%
    20:00 +28°C° 0.9 mm 2 m/s 758 mmHg 85%
    21:00 +27°C° 0.9 mm 2 m/s 758 mmHg 86%
    22:00 +27°C° 0.9 mm 2 m/s 759 mmHg 87%
    23:00 +27°C° 0.3 mm 2 m/s 759 mmHg 87%

    20 Decembrie, Vineri

    Timp Temperatura Precipitaţii Vânt Presiune Umiditate
    00:00 +27°C° 0.3 mm 2 m/s 759 mmHg 88%
    01:00 +27°C° 0.3 mm 2 m/s 758 mmHg 88%
    02:00 +27°C° 0.2 mm 1 m/s 758 mmHg 88%
    03:00 +27°C° 0.2 mm 1 m/s 758 mmHg 88%
    04:00 +27°C° 0.2 mm 1 m/s 758 mmHg 87%
    05:00 +25°C° 0.1 mm 0 m/s 758 mmHg 86%
    06:00 +25°C° 0.1 mm 0 m/s 759 mmHg 85%
    07:00 +25°C° 0.1 mm 0 m/s 759 mmHg 84%
    08:00 +28°C° 0 mm 1 m/s 759 mmHg 78%
    09:00 +29°C° 0 mm 1 m/s 759 mmHg 72%
    10:00 +31°C° 0 mm 1 m/s 759 mmHg 66%
    11:00 +31°C° 0 mm 2 m/s 759 mmHg 67%
    12:00 +31°C° 0 mm 3 m/s 758 mmHg 67%
    13:00 +31°C° 0 mm 3 m/s 757 mmHg 67%
    14:00 +31°C° 0 mm 3 m/s 757 mmHg 67%
    15:00 +31°C° 0 mm 3 m/s 757 mmHg 66%
    16:00 +31°C° 0 mm 3 m/s 756 mmHg 65%
    17:00 +30°C° 0 mm 2 m/s 757 mmHg 69%
    18:00 +29°C° 0 mm 2 m/s 757 mmHg 72%
    19:00 +29°C° 0 mm 2 m/s 757 mmHg 76%
    20:00 +28°C° 0 mm 2 m/s 758 mmHg 77%
    21:00 +28°C° 0 mm 3 m/s 758 mmHg 77%
    22:00 +28°C° 0 mm 3 m/s 758 mmHg 78%
    23:00 +28°C° 0 mm 3 m/s 758 mmHg 78%
    Arată mai mult